Location: Terra Rouge Observatory
(46.0000°N, 62.7500°W)
Time: 00:07:08
(UTC-03:00)

Daily predictions for brighter satellites

Satellite Brightness Start Highest point End
(mag) Time Altitude Azimuth Time Altitude Azimuth Time Altitude Azimuth
USA 215 4.2 03:37:37 10° NE 03:41:40 41° NE 03:41:40 41° NE
Lacrosse 5 4.2 04:00:56 19° NE 04:00:56 19° NE 04:02:31 10° NE
CENTAUR R/B 4.2 04:04:04 26° N 04:04:04 26° N 04:09:01 10° NNE
Cosmos 2369 Rocket 3.7 04:17:58 30° NNE 04:17:58 30° NNE 04:20:47 10° NNE
USA 267 4.0 04:09:48 10° SE 04:13:56 43° SE 04:13:56 43° SE
Resurs 1-4 Rocket 4.4 04:21:34 10° N 04:22:19 14° N 04:22:19 14° N
SJ 16-02 4.4 04:28:21 10° ESE 04:29:51 12° E 04:31:19 10° ENE
Cosmos 2219 4.1 04:40:05 18° N 04:44:00 46° ENE 04:49:25 10° SE
Milstar 3 4.4 04:47:41 17° S 04:47:41 17° S 04:51:08 10° SE
Cosmos 1656 Rocket 4.0 04:48:36 58° SE 04:49:12 62° ESE 04:54:48 10° NNE
Nadezhda 1 Rocket 3.9 04:49:49 68° S 04:50:45 86° E 04:57:08 10° N
Cosmos 2297 Rocket 4.4 04:48:08 10° N 04:52:25 21° NE 04:56:41 10° E
Cosmos 1707 4.5 04:54:28 30° NE 04:54:28 30° NE 04:56:48 10° NNE
CZ-2D R/B 4.4 04:51:14 10° N 04:51:53 13° NNW 04:51:53 13° NNW
Cosmos 1937 Rocket 3.9 04:56:47 57° N 04:56:47 57° N 05:01:03 10° NNE
Cosmos 1898 Rocket 4.4 04:58:46 37° N 04:58:46 37° N 05:02:03 10° NNE
ADEOS II 2.0 04:53:36 10° NNE 04:58:39 81° NNE 04:58:39 81° NNE
Cosmos 2150 Rocket 4.1 05:01:09 68° N 05:01:09 68° N 05:05:52 10° NNE
CZ-4C R/B 3.3 05:03:34 45° SSW 05:03:34 45° SSW 05:09:48 10° S
MOS 1-B 4.2 04:59:10 10° NNE 05:04:59 88° ESE 05:06:30 52° SSW
Cosmos-2242 3.8 05:04:29 10° N 05:08:41 51° ENE 05:12:54 10° SSE
ERBS 4.3 05:10:49 26° ESE 05:10:49 26° ESE 05:12:31 10° ESE
Cosmos 1943 Rocket 2.8 05:11:27 40° NNW 05:11:27 40° NNW 05:15:48 10° NNE
Okean O Rocket 2.1 05:07:28 10° NNE 05:11:50 57° E 05:13:32 34° SSE
Cosmos 990 Rocket 4.2 05:15:37 55° NNW 05:15:37 55° NNW 05:20:06 10° NNE
CZ-4B R/B 4.4 05:13:05 10° NNE 05:14:44 25° NNE 05:14:44 25° NNE
Cosmos 1758 Rocket 3.5 05:18:21 81° N 05:18:21 81° N 05:22:39 10° N
CZ-4B R/B 3.7 05:14:11 10° NNE 05:19:35 58° ESE 05:25:03 10° S
Cosmos 2154 Rocket 3.9 05:18:09 10° NNW 05:24:25 63° W 05:30:37 10° S
USA 215 3.8 05:20:47 10° NE 05:26:53 43° NNW 05:29:00 33° WNW
Meteor 2-21 4.4 05:22:45 10° N 05:28:51 83° E 05:34:58 10° S
SL-8 Rocket 4.2 05:26:41 10° N 05:33:01 72° E 05:39:20 10° SSE
Meteor PRIRODA 4.3 05:29:23 10° NNE 05:33:06 56° E 05:36:44 10° S
Cosmos 1048 Rocket 4.0 05:29:32 10° NNW 05:34:45 83° ENE 05:40:00 10° SSE
COSMO-SKYMED 1 4.4 05:34:21 10° SE 05:38:12 32° ENE 05:42:04 10° N
Meteor 1-28 Rocket 4.3 05:34:42 10° SE 05:38:21 46° ENE 05:42:02 10° N
Cosmos 158 Rocket 3.9 05:34:51 10° NNW 05:40:15 75° WSW 05:45:37 10° SSE
Lacrosse 5 3.4 05:40:08 21° NNW 05:41:37 24° N 05:45:45 10° NE
CZ-2C R/B 3.8 05:39:21 10° SSE 05:44:06 80° ENE 05:48:49 10° NNW
RUBIN 8/PSLV 4.4 05:41:01 10° N 05:45:20 73° WNW 05:47:58 23° SSW
NOSS 3-1 (C) 3.3 05:44:21 27° SW 05:47:44 82° NW 05:54:21 10° NE
Cosmos 1842 Rocket 4.2 05:44:47 10° N 05:49:07 57° ENE 05:53:22 10° SSE
Meteor 2-14 Rocket 4.3 05:44:24 10° N 05:50:30 86° W 05:56:35 10° S
USA 229 DEB 4.0 05:47:42 32° W 05:50:33 50° NW 05:57:20 10° NNE
USA 229 4.0 05:47:46 32° W 05:50:38 50° NW 05:57:25 10° NNE
CZ-4B R/B 4.2 05:48:16 10° NNE 05:52:45 80° ESE 05:57:15 10° S
NOSS 3-1 (A) 3.4 05:49:35 16° SSW 05:54:23 83° SE 06:01:00 10° NE
Meteor 2-16 Rocket 4.4 05:49:29 10° N 05:55:41 89° E 06:01:51 10° S
ATLAS CENTAUR R/B 4.0 05:55:29 10° N 05:56:51 12° NNE 05:58:13 10° NE
Cosmos 2227 Rocket 2.6 05:53:52 10° NNW 05:59:33 67° ENE 06:05:11 10° SE
Cosmos 1356 Rocket 3.5 05:56:44 19° SSW 05:59:38 55° WNW 06:03:53 10° N
USA 267 4.1 05:54:39 10° S 05:59:57 26° SW 06:01:19 24° WSW
Cosmos 2369 Rocket 3.8 05:59:47 16° NW 06:00:10 16° NW 06:03:37 10° N
Cosmos 2218 Rocket 3.9 05:55:28 10° N 06:01:44 85° W 06:08:02 10° S
Meteor 1-24 Rocket 3.8 05:58:47 10° S 06:04:49 89° E 06:10:44 10° N
SJ 16-02 1.2 06:03:23 10° SSW 06:07:46 75° WNW 06:12:11 10° NNE
Cosmos 1674 4.2 06:05:32 10° SSE 06:08:59 37° E 06:12:28 10° NNE
PSLV R/B 4.4 06:05:22 10° N 06:09:00 28° WNW 06:09:24 28° WNW
Cosmos 1953 Rocket 4.4 06:09:34 28° WNW 06:09:44 28° WNW 06:13:29 10° NNW
ATLAS 3B R/B 4.0 06:05:19 10° NNW 06:11:26 34° NE 06:17:18 10° E
USA 81 4.0 06:07:13 10° SSW 06:12:26 64° W 06:17:42 10° N
Cosmos 1726 4.2 06:15:21 10° NNE 06:18:38 30° ENE 06:21:54 10° SE
Cosmos 2181 Rocket 4.2 06:15:53 10° SSW 06:21:50 46° WNW 06:27:45 10° N
Meteor 1-31 Rocket 3.0 06:18:21 10° N 06:21:59 44° WNW 06:25:36 10° SW
Cosmos 1269 Rocket 4.4 06:20:59 10° NW 06:25:59 43° WSW 06:30:57 10° S
SKYMED 2 3.5 06:21:47 10° SSE 06:26:07 85° WSW 06:30:30 10° NNW
Cosmos 2219 3.9 06:23:04 10° NW 06:27:56 30° WSW 06:32:44 10° SSW
Feng Yun 1-1 Rocket 4.3 06:22:49 10° NNE 06:28:27 89° E 06:34:13 10° SSW
USA 116 4.1 06:25:40 10° SSW 06:29:07 38° W 06:33:01 10° NNW
Cosmos 1707 4.5 06:29:44 16° WNW 06:29:44 16° WNW 06:31:44 10° NNW
Cosmos 372 Rocket 4.2 06:25:25 10° SW 06:30:28 49° WNW 06:35:36 10° NNE
Cosmos 1356 3.7 06:27:45 10° SSW 06:31:06 43° WNW 06:34:28 10° N
Cosmos 2297 Rocket 2.1 06:31:27 10° NNW 06:37:07 78° WSW 06:42:45 10° SSE
ADEOS II 3.6 06:34:55 10° NNW 06:37:55 15° WNW 06:39:36 14° WNW
Cosmos 1656 4.3 06:33:36 10° S 06:39:12 61° ESE 06:44:49 10° NNE
PAYLOAD A 4.1 06:36:59 10° NNE 06:41:43 74° ESE 06:46:32 10° S
KORONAS-FOTON 4.2 06:38:36 10° S 06:42:21 68° E 06:46:08 10° NNE
Thor Agena Rocket 4.0 06:38:54 10° SSE 06:44:08 70° ENE 06:49:20 10° N
Cosmos 1908 3.2 06:40:27 10° NNW 06:44:15 61° W 06:48:01 10° S
Cosmos 1607 4.1 06:37:58 10° NW 06:44:29 85° NE 06:50:58 10° SE
ERBS 4.2 06:44:07 13° WSW 06:45:17 15° SW 06:47:19 10° SSW
In-Cosmos 22 4.4 06:39:49 10° SSW 06:45:18 51° WNW 06:50:55 10° N
Cosmos 2082 3.7 06:40:20 10° NNW 06:45:59 69° WSW 06:51:33 10° SSE
IDEFIX/ARIANE 42P 2.8 06:41:59 10° NNE 06:47:16 77° ESE 06:52:28 10° S
Okean O Rocket 3.1 06:44:54 10° NNW 06:47:46 17° WNW 06:50:39 10° WSW
Cosmos 1697 Rocket 3.8 06:43:31 10° S 06:48:56 50° ESE 06:54:23 10° NE
Cosmos 1125 Rocket 4.2 06:45:19 10° WSW 06:50:02 33° WNW 06:54:49 10° N
EO 1 Del DPAF 4.0 06:48:49 10° SSW 06:52:14 30° W 06:55:40 10° NW
Meteor 1-21 Rocket 4.4 06:47:26 10° S 06:53:13 83° E 06:58:55 10° NNE
Cosmos 494 Rocket 4.1 06:48:46 10° NNW 06:53:50 58° WSW 06:58:55 10° S
NOAA 6 4.1 06:50:26 10° N 06:55:31 57° WNW 07:00:33 10° SSW
Cosmos 1943 Rocket 4.1 06:54:28 10° NW 06:55:46 11° NNW 06:57:03 10° NNW
CZ-4B R/B 4.3 06:55:31 10° N 06:59:46 24° WNW 07:04:03 10° WSW
Cosmos 2263 Rocket 4.4 06:58:11 10° N 07:02:21 21° NE 07:06:28 10° E
Cosmos 1980 Rocket 4.0 06:57:57 10° S 07:03:05 38° ESE 07:08:15 10° NE
CZ-2C R/B 2.6 06:58:45 10° NNE 07:03:44 85° ESE 07:08:50 10° SSW
Okean-O 3.1 07:01:10 10° N 07:05:19 39° WNW 07:09:26 10° SW
NOSS 2-3 (D) 4.1 07:02:02 10° SSW 07:06:44 80° SE 07:12:19 10° NE
USA 215 4.3 07:03:16 10° ENE 07:09:00 34° N 07:14:44 10° WNW
Cosmos 2369 3.7 07:04:55 10° SW 07:10:31 68° WNW 07:16:11 10° NNE
